Retour au catalogue

BREEZE-M R/B

ActifHEO
NORAD 39128·ROCKET BODY·🇷🇺 Russia

Lancé Apr 15, 2013 depuis Baikonur Cosmodrome

Loading…

Prochains Passages (prochaines 24 heures)

TLE

FraisSource: Space-Track

Époque: Sep 12, 2026, 23:36 UTC

1 39128U 13014B   26255.98390265 -.00000164  00000-0  00000-0 0  9996
2 39128  15.7751 355.5400 4803738 226.4656  82.0598  1.90429769 93299

Suivez BREEZE-M R/B en temps réel avec AllMySat

Download on the App Store